DW8548 Weather Reports


time (UTC)temp
F
wind
direction
speed
knots
gust
knots
rain 1hr
in
rain 24hr
in
rain mn
in
humidity
%
barometer
mb
20260504000103 53 0 0.0 1.7 0.00 0.00 0.00 88 1027.7
20260503234557 52 61 0.0 3.5 0.00 0.00 0.00 90 1027.5
20260503233330 50 90 0.0 3.5 0.00 0.00 0.00 90 1027.4
20260503231559 49 0 0.0 0.9 0.00 0.00 0.00 90 1027.3
20260503224554 49 0 0.0 0.9 0.00 0.00 0.00 89 1026.9
20260503223100 49 0 0.0 1.7 0.00 0.00 0.00 90 1026.8
20260503221554 49 0 0.0 1.7 0.00 0.00 0.00 90 1026.8
20260503220058 48 0 0.0 0.9 0.00 0.00 0.00 90 1026.8
20260503214553 47 0 0.0 0.0 0.00 0.00 0.00 89 1026.8
20260503213107 47 0 0.0 0.0 0.00 0.00 0.00 89 1026.8
20260503211557 48 0 0.0 0.0 0.00 0.00 0.00 89 1026.6
20260503210100 48 0 0.0 0.9 0.00 0.00 0.00 89 1026.6
20260503204600 48 0 0.0 0.0 0.00 0.00 0.00 88 1026.4
20260503203104 49 0 0.0 0.9 0.00 0.00 0.00 89 1026.5
20260503201642 49 81 0.0 1.7 0.00 0.00 0.00 88 1026.4
20260503200101 49 0 0.0 1.7 0.00 0.00 0.00 89 1026.1
20260503194555 49 0 0.0 2.6 0.00 0.00 0.00 89 1026.4
20260503193101 48 117 0.0 0.9 0.00 0.00 0.00 89 1026.4
20260503191620 48 0 0.0 0.9 0.00 0.00 0.00 89 1026.4
20260503190101 48 0 0.0 0.0 0.00 0.00 0.00 89 1026.5
20260503184559 49 0 0.0 0.0 0.00 0.00 0.00 89 1026.4
20260503183114 48 0 0.0 0.0 0.00 0.00 0.00 89 1026.3
20260503181602 48 0 0.0 0.9 0.00 0.00 0.00 90 1026.2
20260503180058 47 0 0.0 0.0 0.00 0.00 0.00 89 1026.1
20260503174606 47 0 0.0 0.0 0.00 0.00 0.00 89 1026.1
20260503173116 48 0 0.0 0.0 0.00 0.00 0.00 88 1026.1
20260503171554 49 0 0.0 0.0 0.00 0.00 0.00 88 1026.1
20260503120124 57 0 0.0 1.7 0.00 0.00 0.00 77 1025.3
20260503100105 59 0 0.0 0.0 0.00 0.00 0.00 78 1024.5
20260503081556 65 259 0.9 3.5 0.00 0.00 0.00 69 1024.2
20260503071602 66 259 1.7 4.3 0.00 0.00 0.00 65 1024.1
20260503070107 67 263 1.7 5.2 0.00 0.00 0.00 65 1024.1
20260503054604 70 0 0.0 1.7 0.00 0.00 0.00 57 1024.2
20260503053056 65 342 0.0 2.6 0.00 0.00 0.00 65 1024.2
20260503051600 65 0 0.0 1.7 0.00 0.00 0.00 63 1024.4
20260503050059 66 0 0.9 4.3 0.00 0.00 0.00 62 1024.6
20260503044553 66 90 0.9 5.2 0.00 0.00 0.00 63 1025.1
20260503043110 66 59 0.9 3.5 0.00 0.00 0.00 64 1025.2
20260503041609 65 102 0.9 6.1 0.00 0.00 0.00 66 1025.5
20260503034605 63 102 0.9 6.1 0.00 0.00 0.00 68 1025.9
20260503031555 61 63 0.9 3.5 0.00 0.00 0.00 74 1026.1
20260503030058 60 0 0.9 6.1 0.00 0.00 0.00 75 1026.3
20260503024555 60 109 0.9 5.2 0.00 0.00 0.00 77 1026.5
20260503023059 59 0 1.7 5.2 0.00 0.00 0.00 77 1026.6
20260503020052 57 73 0.9 4.3 0.00 0.00 0.00 82 1026.9
20260503014603 56 0 0.9 5.2 0.00 0.00 0.00 84 1026.9
20260503013056 55 128 0.9 5.2 0.00 0.00 0.00 86 1027.0
20260503011556 54 109 0.9 6.1 0.00 0.00 0.00 88 1027.0
20260503010055 53 92 1.7 4.3 0.00 0.00 0.00 90 1026.9
20260503004552 51 103 0.0 3.5 0.00 0.00 0.00 91 1026.9
20260503003053 49 89 0.9 4.3 0.00 0.00 0.00 91 1026.9
20260503001551 49 123 0.9 4.3 0.00 0.00 0.00 92 1026.7